Regional Weather Roundup
Issued by NWS Sioux Falls, SD

Home | Current Version | Previous Version | Graphics & Text | Print | Product List | Glossary On
Versions: 1 2 3 4 5 6 7 8 9 10 11 12 13 14 15 16 17 18 19 20 21 22 23 24 25 26 27 28 29 30 31 32 33 34 35 36 37 38 39 40 41 42 43 44 45 46 47 48 49 50
932
ASUS43 KFSD 180710
RWRFSD

WEATHER ROUNDUP FOR SE SOUTH DAKOTA/SW MINNESOTA/NW IOWA
NATIONAL WEATHER SERVICE SIOUX FALLS SD
100 AM CST WED JAN 18 2017

NOTE: "FAIR" INDICATES FEW OR NO CLOUDS BELOW 12,000 FEET WITH NO
SIGNIFICANT WEATHER AND OR OBSTRUCTIONS TO VISIBILITY.


SDZ038>040-050-052>070-180800-
SOUTHEAST SOUTH DAKOTA

CITY           SKY/WX    TMP DP  RH WIND       PRES   REMARKS
BROOKINGS      CLOUDY    26  24  92 SW9       29.88S WCI  17
CHAMBERLAIN    CLOUDY    20  18  91 CALM      29.88F
HURON          CLOUDY    22  22 100 S7        29.88S WCI  13
MADISON          N/A     25  25 100 S12         N/A  WCI  14
MITCHELL       CLOUDY    24  22  91 S7        29.90F WCI  16
SIOUX FALLS    CLOUDY    30  29  96 SW9       29.94F WCI  22
WINNER         FAIR      32  21  64 SW10      29.87F WCI  24
YANKTON        CLOUDY    30  27  86 S6        29.96F WCI  24
$$

MNZ071-072-080-081-089-090-097-098-180800-
SOUTHWEST MINNESOTA

CITY           SKY/WX    TMP DP  RH WIND       PRES   REMARKS
FAIRMONT       CLOUDY    27  26  96 S14       29.99F FOG     WCI  16
JACKSON        CLOUDY    27  25  93 S7        29.97F FOG     WCI  19
LUVERNE        CLOUDY    23  21  93 S5        29.96F WCI  17
MARSHALL       CLOUDY    30  27  88 S18       29.87F WCI  18
MONTEVIDEO     CLOUDY    21  19  93 SW5       29.90F WCI  15
PIPESTONE      CLOUDY    27  25  93 S13       29.91S WCI  16
REDWOOD FALLS  CLOUDY    24  20  84 S10       29.92F WCI  14
TRACY          CLOUDY    32  28  86 SW26      29.89F WCI  18
WINDOM         CLOUDY    27  25  93 S10       29.96R WCI  17
WORTHINGTON    CLOUDY    27  25  92 S14       29.95F WCI  16
$$

IAZ001>003-012>014-020>022-031-032-NEZ013-014-SDZ071-180800-
NORTHWEST IOWA

CITY           SKY/WX    TMP DP  RH WIND       PRES   REMARKS
CHEROKEE       CLEAR     24  24 100 CALM      30.03S
DENISON        FOG       28  28 100 S8        30.05S VSB 1   WCI  20
ESTHERVILLE    CLOUDY    26  26 100 S10       29.99F WCI  16
LE MARS        CLOUDY    28  27  93 S9        30.02S WCI  20
ORANGE CITY    CLOUDY    27  27 100 S7        29.99F WCI  19
SHELDON        CLOUDY    28  28 100 S10       29.97F WCI  19
SIOUX CITY     CLOUDY    27  25  92 SE9       30.03S FOG     WCI  18
SPENCER        CLOUDY    24  23  96 S6        30.00F WCI  17
STORM LAKE     CLOUDY    27  27 100 SW13      30.02S WCI  16
$$

ABBREVIATIONS USED IN REMARKS
   TC - TEMPERATURE IN CELSIUS
  WCI - WIND CHILL INDEX
   HX - HEAT INDEX
  VSB - VISIBILITY





USA.gov is the U.S. government's official web portal to all federal, state and local government web resources and services.